This demonstration page uses our WeatherBlox Daily Observations layout. Learn more.

Left ArrowRight Arrow

39.01783, -85.05884

Hourly Observations for December 13, 2016

Temp ( °F °C ) Dew Point ( °F °C ) Humidity (%) Winds ( mph kmh ) Pressure ( in mb ) Visibility ( mi km ) Precip ( " mm )
12:52 am 00:52 Cloudy 30 -1.1 25 -3.9 82 82 E 7 11 30.11 1020 8 13 N/A
1:52 am 01:52 Cloudy 30 -1.1 25 -3.9 82 82 ESE 7 11 30.11 1020 7 11 N/A
2:52 am 02:52 Cloudy 30 -1.1 26 -3.3 85 85 SW 5 7 30.15 1021 7 11 N/A
3:52 am 03:52 Cloudy 30 -1.1 26 -3.3 85 85 SW 3 6 30.15 1021 7 11 N/A
4:52 am 04:52 Cloudy with Light Snow 30 -1.1 26 -3.3 85 85 WNW 6 9 30.17 1022 7 11 N/A
5:52 am 05:52 Cloudy with Mist and Fog 30 -1.1 27 -2.8 88 88 N N/A 30.14 1021 6 10 N/A
6:52 am 06:52 Cloudy with Light Snow 31 -0.6 27 -2.8 85 85 N N/A 30.14 1021 6 10 N/A
7:10 am 07:10 Cloudy with Light Snow 31 -0.6 27 -2.8 85 85 N N/A 30.18 1022 3 5 N/A
7:15 am 07:15 Cloudy 32 undefined 27 -3 80 80 N N/A 30.18 1022 3 4 N/A
7:30 am 07:30 Cloudy with Mist and Fog 30 -1 28 -2 93 93 NNE 5 7 30.18 1022 2 2 N/A
7:32 am 07:32 Cloudy with Light Snow 30 -1 28 -2 93 93 NNE 6 9 30.18 1022 2 2 N/A
7:52 am 07:52 Cloudy with Light Snow 32 undefined 30 -1.1 92 92 NNE 8 13 30.12 1020 2 2 0.07 1.78
7:57 am 07:57 Cloudy with Light Wintry Mix 32 undefined 31 -0.6 96 96 N 7 11 30.18 1022 2 2 0.01 0.25
8:12 am 08:12 Cloudy with Light Wintry Mix 32 undefined 32 undefined 100 100 N N/A 30.18 1022 2 2 0.03 0.76
8:26 am 08:26 Cloudy with Light Snow 34 1 32 undefined 93 93 N N/A 30.18 1022 2 2 N/A
8:42 am 08:42 Cloudy with Light Snow 34 1 30 -1 87 87 N N/A 30.18 1022 1 1 N/A
8:52 am 08:52 Cloudy with Light Snow 32 undefined 32 undefined 100 100 SSW 3 6 30.13 1020 1 1 0.09 2.29
9:22 am 09:22 Cloudy with Light Rain/Snow 32 undefined 32 undefined 100 100 SSW 6 9 30.18 1022 1 1 N/A
9:35 am 09:35 Cloudy with Light Rain/Snow 32 undefined 32 undefined 100 100 S 6 9 30.18 1022 1 1 0.07 1.78
9:41 am 09:41 Cloudy with Light Rain/Snow 32 undefined 32 undefined 100 100 S 6 9 30.18 1022 1 1 0.08 2.03
9:52 am 09:52 Cloudy with Light Rain/Snow 32 undefined 32 undefined 100 100 S 6 9 30.13 1020 1 1 0.08 2.03
10:11 am 10:11 Cloudy with Light Rain 32 undefined 32 undefined 100 100 SSE 3 6 30.15 1021 1 1 N/A
10:19 am 10:19 Cloudy with Light Rain 32 undefined 32 undefined 100 100 undefined N/A 30.15 1021 1 2 0.01 0.25
10:43 am 10:43 Cloudy with Light Rain 33 0.6 32 undefined 96 96 N 6 9 30.15 1021 1 1 0.01 0.25
10:52 am 10:52 Cloudy with Light Rain 33 0.6 32 undefined 96 96 N 6 9 30.10 1019 1 2 0.01 0.25
11:07 am 11:07 Cloudy with Light Rain 34 1 32 undefined 93 93 NNW 7 11 30.15 1021 1 2 N/A
11:52 am 11:52 Cloudy with Light Snow 33 0.6 32 undefined 96 96 NNW 10 17 30.11 1020 1 2 0.01 0.25
12:12 pm 12:12 Cloudy with Light Snow 32 undefined 30 -1 93 93 NNW 7 11 30.15 1021 0 0 N/A
12:23 pm 12:23 Cloudy with Mist and Fog 32 undefined 32 undefined 100 100 NNW 7 11 30.15 1021 3 4 N/A
12:34 pm 12:34 Cloudy with Mist and Fog 32 undefined 30 -1 93 93 NNW 6 9 30.15 1021 3 4 N/A
12:52 pm 12:52 Cloudy with Light Snow 32 undefined 30 -1.1 92 92 NW 6 9 30.11 1020 3 4 N/A
1:37 pm 13:37 Cloudy with Light Snow 32 undefined 31 -0.6 96 96 NNW 5 7 30.15 1021 2 2 N/A
1:52 pm 13:52 Cloudy with Light Snow 32 undefined 31 -0.6 96 96 N 6 9 30.09 1019 2 2 N/A
2:52 pm 14:52 Cloudy with Light Snow 32 undefined 31 -0.6 96 96 N 8 13 30.09 1019 2 2 0.01 0.25
3:12 pm 15:12 Cloudy with Light Snow 33 0.6 31 -0.6 92 92 NNW 5 7 30.12 1020 2 2 N/A
3:52 pm 15:52 Cloudy with Light Snow 33 0.6 31 -0.6 92 92 N N/A 30.08 1019 2 2 N/A
4:36 pm 16:36 Cloudy with Light Snow 34 1 30 -1 87 87 N 3 6 30.15 1021 2 2 N/A
4:52 pm 16:52 Cloudy with Mist and Fog 34 1 30 -1 87 87 N N/A 30.15 1021 2 2 N/A
5:52 pm 17:52 Cloudy with Light Snow 32 undefined 31 -0.6 96 96 WNW 3 6 30.13 1020 1 2 N/A
6:38 pm 18:38 Cloudy with Mist and Fog 32 undefined 30 -1 93 93 NW 3 6 30.18 1022 5 8 N/A
7:22 pm 19:22 Cloudy with Mist and Fog 32 undefined 30 -1 93 93 NW 5 7 30.18 1022 4 6 N/A
7:35 pm 19:35 Cloudy with Mist and Fog 32 undefined 30 -1 93 93 NW 6 9 30.18 1022 4 6 N/A
7:52 pm 19:52 Cloudy with Mist and Fog 32 undefined 31 -0.6 96 96 NW 8 13 30.14 1021 4 6 N/A
8:52 pm 20:52 Cloudy with Mist and Fog 32 undefined 30 -1.1 92 92 NNW 12 19 30.15 1021 6 10 N/A
9:52 pm 21:52 Cloudy with Mist and Fog 30 -1.1 27 -2.8 88 88 NNW 14 22 30.17 1022 6 10 N/A
10:16 pm 22:16 Cloudy with Mist and Fog 28 -2 27 -3 93 93 NNW 12 19 30.24 1024 6 10 N/A
10:52 pm 22:52 Cloudy with Mist and Fog 28 -2.2 25 -3.9 88 88 NNW 9 15 30.20 1023 6 10 N/A
11:52 pm 23:52 Cloudy 27 -2.8 22 -5.6 81 81 NW 12 19 30.22 1023 7 11 N/A

Powered by AerisWeather